EST,Max TemperatureF,Mean TemperatureF,Min TemperatureF,Max Dew PointF,MeanDew PointF,Min DewpointF,Max Humidity, Mean Humidity, Min Humidity, Max Sea Level PressureIn, Mean Sea Level PressureIn, Min Sea Level PressureIn, Max VisibilityMiles, Mean VisibilityMiles, Min VisibilityMiles, Max Wind SpeedMPH, Mean Wind SpeedMPH, Max Gust SpeedMPH,PrecipitationIn, CloudCover, Events, WindDirDegrees
2013-11-1,72,64,57,63,57,50,88,72,46,29.77,29.63,29.55,10,9,0,32,12,40,0.12,4,Rain,214
2013-11-2,69,60,51,53,44,36,90,60,37,29.78,29.68,29.62,10,10,10,10,3,16,0.00,4,Fog-Rain,280
2013-11-3,53,46,37,40,30,20,71,53,41,30.43,30.12,29.80,10,10,10,15,7,22,0.00,4,,341
2013-11-4,48,41,34,24,17,13,55,39,24,30.66,30.60,30.48,10,10,10,9,5,17,0.00,0,,25
2013-11-5,55,46,37,41,34,25,71,59,49,30.66,30.59,30.46,10,10,10,9,4,,0.00,2,,106
2013-11-6,66,54,42,51,43,38,89,67,48,30.48,30.30,30.07,10,10,10,12,3,18,0.00,4,Fog,178
2013-11-7,64,54,43,57,48,29,88,74,50,30.05,29.88,29.76,10,9,2,14,5,25,0.08,6,Rain,267
2013-11-8,51,46,41,31,26,20,67,48,31,30.22,30.06,29.95,10,10,10,17,8,26,0.00,3,,285
2013-11-9,52,44,36,33,25,22,65,48,31,30.29,30.20,30.00,10,10,10,13,7,,0.00,1,,239
2013-11-10,62,50,39,37,31,26,73,50,29,30.05,29.92,29.80,10,10,10,23,10,37,0.00,5,Rain,257
2013-11-11,55,49,43,31,26,23,47,40,34,30.20,30.09,29.97,10,10,10,16,9,21,0.00,5,,255
2013-11-12,52,42,32,32,23,14,79,55,39,30.30,30.13,29.94,10,8,2,17,9,28,0.03,5,Rain-Snow,325
2013-11-13,42,35,28,18,13,7,56,44,25,30.38,30.33,30.28,10,10,10,15,8,25,0.00,0,,298
2013-11-14,55,42,30,19,16,11,59,37,18,30.26,30.21,30.16,10,10,10,16,7,22,0.00,0,,215
2013-11-15,59,46,33,30,24,19,64,45,23,30.25,30.20,30.16,10,10,10,12,4,,0.00,0,,197
2013-11-16,61,52,42,46,39,29,93,68,44,30.33,30.28,30.24,10,9,7,8,2,,0.02,3,Fog-Rain,191
2013-11-17,64,56,48,58,52,45,88,81,72,30.28,30.08,29.79,10,5,2,7,1,16,0.00,7,Fog-Rain,161
2013-11-18,66,60,51,59,43,23,88,57,22,29.78,29.67,29.59,10,8,2,20,11,34,0.22,4,Rain,242
2013-11-19,51,44,37,26,22,19,48,41,35,30.35,30.08,29.78,10,10,10,23,13,32,0.00,3,,321
2013-11-20,46,40,33,19,15,9,56,40,22,30.61,30.53,30.37,10,10,10,13,6,21,0.00,0,,5
2013-11-21,53,42,30,41,30,17,68,57,45,30.62,30.53,30.39,10,10,10,8,4,22,0.00,4,,111
2013-11-22,60,55,50,48,46,39,88,73,60,30.37,30.11,29.90,10,9,4,12,5,,0.08,7,Rain,220
2013-11-23,55,44,30,44,23,8,82,51,29,30.04,29.97,29.91,10,9,0,26,14,39,0.00,3,Snow,309
2013-11-24,30,27,24,6,2,-4,44,35,22,30.38,30.20,30.03,10,10,10,29,16,46,0.00,1,,303
2013-11-25,37,29,21,12,9,6,53,41,30,30.48,30.40,30.34,10,10,10,14,8,17,0.00,0,Rain,249
2013-11-26,48,40,34,45,27,13,93,63,36,30.33,30.19,29.80,10,7,2,10,4,,0.50,7,Rain,100
2013-11-27,62,50,36,63,48,21,100,84,55,29.73,29.46,29.35,10,5,1,25,12,39,2.18,8,Rain,238
2013-11-28,36,33,30,17,12,7,52,43,30,30.48,30.22,29.79,10,10,10,25,13,36,0.00,3,,303
2013-11-29,39,34,28,19,16,12,64,49,42,30.74,30.59,30.48,10,10,10,12,3,16,0.00,4,,315
2013-11-30,37,31,25,25,16,10,62,52,37,30.77,30.64,30.39,10,10,10,7,4,,0.00,2,,21